When you browse on this site, cookies collect data to enhance your experience and personalize the content and advertising you see.
Visit our Privacy Policy to learn more. By continuing to use the site, you agree to this use of cookies and data.
  • In Spain
  • List of Countries
  • For 7 days
  • Water Temperature
  • Satellite Maps
  • Weather Map
  • Weather Widgets
  • user-avatar
    Login

    Hourly Weather Konstantyna

    Today, 17 January, Thursday

    Time Temperature Precipitation Wind Pressure Humidity
    00:00 +6°C° 0 mm 2 mps 710 mmHg 66%
    01:00 +6°C° 0 mm 2 mps 710 mmHg 69%
    02:00 +5°C° 0 mm 2 mps 710 mmHg 71%
    03:00 +5°C° 0 mm 2 mps 709 mmHg 74%
    04:00 +5°C° 0 mm 2 mps 709 mmHg 75%
    05:00 +4°C° 0 mm 2 mps 709 mmHg 76%
    06:00 +4°C° 0 mm 2 mps 709 mmHg 78%
    07:00 +5°C° 0 mm 2 mps 709 mmHg 73%
    08:00 +7°C° 0 mm 2 mps 709 mmHg 67%
    09:00 +8°C° 0 mm 2 mps 709 mmHg 61%
    10:00 +9°C° 0 mm 2 mps 709 mmHg 55%
    11:00 +12°C° 0 mm 2 mps 709 mmHg 49%
    12:00 +13°C° 0 mm 2 mps 709 mmHg 44%
    13:00 +13°C° 0 mm 2 mps 709 mmHg 44%
    14:00 +13°C° 0 mm 2 mps 709 mmHg 44%
    15:00 +13°C° 0 mm 2 mps 709 mmHg 44%
    16:00 +12°C° 0 mm 1 mps 708 mmHg 53%
    17:00 +10°C° 0 mm 1 mps 708 mmHg 62%
    18:00 +8°C° 0 mm 1 mps 708 mmHg 70%
    19:00 +8°C° 0 mm 1 mps 708 mmHg 73%
    20:00 +6°C° 0 mm 0 mps 708 mmHg 75%
    21:00 +6°C° 0 mm 0 mps 708 mmHg 78%
    22:00 +6°C° 0 mm 0 mps 708 mmHg 77%
    23:00 +6°C° 0 mm 1 mps 708 mmHg 77%

    Tomorrow, 18 January, Friday

    Time Temperature Precipitation Wind Pressure Humidity
    00:00 +6°C° 0 mm 1 mps 708 mmHg 76%
    01:00 +6°C° 0 mm 1 mps 708 mmHg 75%
    02:00 +6°C° 0 mm 1 mps 707 mmHg 75%
    03:00 +6°C° 0 mm 1 mps 707 mmHg 74%
    04:00 +6°C° 0 mm 1 mps 707 mmHg 74%
    05:00 +4°C° 0 mm 2 mps 707 mmHg 74%
    06:00 +4°C° 0 mm 2 mps 707 mmHg 74%
    07:00 +6°C° 0 mm 2 mps 708 mmHg 69%
    08:00 +7°C° 0 mm 2 mps 708 mmHg 64%
    09:00 +9°C° 0 mm 2 mps 709 mmHg 59%
    10:00 +10°C° 0 mm 2 mps 709 mmHg 57%
    11:00 +12°C° 0 mm 2 mps 709 mmHg 54%
    12:00 +13°C° 0 mm 2 mps 709 mmHg 52%
    13:00 +13°C° 0.2 mm 2 mps 709 mmHg 56%
    14:00 +11°C° 0.2 mm 3 mps 708 mmHg 60%
    15:00 +11°C° 0.2 mm 3 mps 708 mmHg 65%
    16:00 +10°C° 0.5 mm 2 mps 708 mmHg 74%
    17:00 +9°C° 0.5 mm 2 mps 708 mmHg 83%
    18:00 +7°C° 0.5 mm 2 mps 709 mmHg 92%
    19:00 +7°C° 0.4 mm 2 mps 709 mmHg 94%
    20:00 +8°C° 0.4 mm 1 mps 709 mmHg 95%
    21:00 +8°C° 0.4 mm 1 mps 709 mmHg 96%
    22:00 +8°C° 0.8 mm 1 mps 709 mmHg 96%
    23:00 +7°C° 0.8 mm 0 mps 709 mmHg 95%

    Day after tomorrow, 19 January, Saturday

    Time Temperature Precipitation Wind Pressure Humidity
    00:00 +7°C° 0.8 mm 0 mps 709 mmHg 95%
    01:00 +6°C° 0.3 mm 0 mps 709 mmHg 95%
    02:00 +6°C° 0.3 mm 0 mps 709 mmHg 95%
    03:00 +5°C° 0.3 mm 0 mps 708 mmHg 95%
    04:00 +5°C° 0 mm 0 mps 708 mmHg 95%
    05:00 +5°C° 0 mm 0 mps 708 mmHg 95%
    06:00 +5°C° 0 mm 1 mps 708 mmHg 94%
    07:00 +7°C° 0 mm 1 mps 708 mmHg 90%
    08:00 +8°C° 0 mm 1 mps 709 mmHg 85%
    09:00 +9°C° 0 mm 1 mps 709 mmHg 80%
    10:00 +9°C° 0.1 mm 2 mps 709 mmHg 75%
    11:00 +10°C° 0.1 mm 2 mps 709 mmHg 69%
    12:00 +10°C° 0.1 mm 2 mps 708 mmHg 63%
    13:00 +10°C° 0.2 mm 3 mps 708 mmHg 63%
    14:00 +10°C° 0.2 mm 3 mps 708 mmHg 62%
    15:00 +10°C° 0.2 mm 3 mps 708 mmHg 62%
    16:00 +9°C° 0 mm 2 mps 708 mmHg 69%
    17:00 +7°C° 0 mm 2 mps 708 mmHg 76%
    18:00 +7°C° 0 mm 1 mps 708 mmHg 83%
    19:00 +6°C° 0 mm 1 mps 708 mmHg 84%
    20:00 +6°C° 0 mm 1 mps 709 mmHg 86%
    21:00 +6°C° 0 mm 1 mps 709 mmHg 87%
    22:00 +6°C° 0 mm 1 mps 709 mmHg 87%
    23:00 +5°C° 0 mm 1 mps 708 mmHg 86%

    20 January, Sunday

    Time Temperature Precipitation Wind Pressure Humidity
    00:00 +5°C° 0 mm 1 mps 708 mmHg 85%
    01:00 +4°C° 0 mm 2 mps 708 mmHg 84%
    02:00 +4°C° 0 mm 2 mps 708 mmHg 82%
    03:00 +4°C° 0 mm 2 mps 707 mmHg 81%
    04:00 +4°C° 0 mm 2 mps 707 mmHg 79%
    05:00 +4°C° 0 mm 2 mps 707 mmHg 76%
    06:00 +4°C° 0 mm 2 mps 707 mmHg 73%
    07:00 +5°C° 0 mm 2 mps 707 mmHg 70%
    08:00 +7°C° 0 mm 3 mps 707 mmHg 66%
    09:00 +8°C° 0 mm 3 mps 707 mmHg 62%
    10:00 +10°C° 0 mm 4 mps 707 mmHg 60%
    11:00 +10°C° 0 mm 5 mps 707 mmHg 58%
    12:00 +13°C° 0 mm 6 mps 707 mmHg 56%
    13:00 +12°C° 0.3 mm 5 mps 706 mmHg 61%
    14:00 +12°C° 0.3 mm 5 mps 706 mmHg 66%
    15:00 +10°C° 0.3 mm 5 mps 705 mmHg 71%
    16:00 +10°C° 0.6 mm 4 mps 705 mmHg 75%
    17:00 +9°C° 0.6 mm 3 mps 705 mmHg 79%
    18:00 +8°C° 0.6 mm 2 mps 705 mmHg 83%
    19:00 +8°C° 0 mm 2 mps 705 mmHg 84%
    20:00 +7°C° 0 mm 2 mps 706 mmHg 84%
    21:00 +7°C° 0 mm 2 mps 706 mmHg 84%
    22:00 +7°C° 0 mm 2 mps 706 mmHg 86%
    23:00 +7°C° 0 mm 2 mps 705 mmHg 88%

    21 January, Monday

    Time Temperature Precipitation Wind Pressure Humidity
    00:00 +6°C° 0 mm 2 mps 705 mmHg 90%
    01:00 +6°C° 0.1 mm 2 mps 705 mmHg 90%
    02:00 +6°C° 0.1 mm 2 mps 705 mmHg 91%
    03:00 +7°C° 0.1 mm 1 mps 705 mmHg 92%
    04:00 +7°C° 0.4 mm 2 mps 706 mmHg 94%
    05:00 +7°C° 0.4 mm 2 mps 706 mmHg 95%
    06:00 +7°C° 0.4 mm 2 mps 707 mmHg 96%
    07:00 +7°C° 0.1 mm 3 mps 707 mmHg 92%
    08:00 +6°C° 0.1 mm 4 mps 708 mmHg 87%
    09:00 +7°C° 0.1 mm 4 mps 708 mmHg 82%
    10:00 +7°C° 0.1 mm 4 mps 709 mmHg 80%
    11:00 +7°C° 0.1 mm 5 mps 709 mmHg 78%
    12:00 +7°C° 0.1 mm 5 mps 709 mmHg 76%
    13:00 +7°C° 0.1 mm 5 mps 709 mmHg 74%
    14:00 +7°C° 0.1 mm 5 mps 709 mmHg 71%
    15:00 +7°C° 0.1 mm 4 mps 708 mmHg 69%
    16:00 +6°C° 0 mm 4 mps 709 mmHg 75%
    17:00 +5°C° 0 mm 3 mps 709 mmHg 82%
    18:00 +5°C° 0 mm 2 mps 709 mmHg 88%
    19:00 +5°C° 0 mm 2 mps 709 mmHg 89%
    20:00 +4°C° 0 mm 2 mps 710 mmHg 89%
    21:00 +4°C° 0 mm 2 mps 710 mmHg 90%
    22:00 +4°C° 0 mm 2 mps 710 mmHg 90%
    23:00 +4°C° 0 mm 2 mps 710 mmHg 90%

    22 January, Tuesday

    Time Temperature Precipitation Wind Pressure Humidity
    00:00 +4°C° 0 mm 2 mps 710 mmHg 90%
    01:00 +4°C° 0 mm 2 mps 709 mmHg 90%
    02:00 +4°C° 0 mm 2 mps 709 mmHg 90%
    03:00 +3°C° 0 mm 2 mps 709 mmHg 91%
    04:00 +4°C° 0 mm 1 mps 709 mmHg 91%
    05:00 +4°C° 0 mm 1 mps 709 mmHg 91%
    06:00 +4°C° 0 mm 1 mps 708 mmHg 91%
    07:00 +4°C° 0 mm 2 mps 709 mmHg 86%
    08:00 +5°C° 0 mm 2 mps 709 mmHg 81%
    09:00 +6°C° 0 mm 2 mps 709 mmHg 76%
    10:00 +7°C° 0 mm 2 mps 708 mmHg 68%
    11:00 +8°C° 0 mm 2 mps 708 mmHg 61%
    12:00 +9°C° 0 mm 3 mps 707 mmHg 53%
    13:00 +10°C° 0 mm 3 mps 707 mmHg 50%
    14:00 +10°C° 0 mm 3 mps 706 mmHg 47%
    15:00 +10°C° 0 mm 3 mps 705 mmHg 43%
    16:00 +9°C° 0 mm 3 mps 705 mmHg 50%
    17:00 +7°C° 0 mm 2 mps 704 mmHg 56%
    18:00 +6°C° 0 mm 2 mps 704 mmHg 62%
    19:00 +5°C° 0 mm 3 mps 703 mmHg 64%
    20:00 +4°C° 0 mm 3 mps 703 mmHg 66%
    21:00 +4°C° 0 mm 3 mps 703 mmHg 67%
    22:00 +4°C° 0 mm 3 mps 702 mmHg 66%
    23:00 +4°C° 0 mm 3 mps 701 mmHg 65%
    Show more